• In Spain
  • List of Countries
  • For 7 days
  • Water Temperature
  • Satellite Maps
  • Weather Map
  • Weather Widgets
  • user-avatar
    Login

    Hourly Weather Senhora da Hora

    Today, 21 November, Tuesday

    Time Temperature Precipitation Wind Pressure Humidity
    00:00 +12°C° 0 mm 3 mps 759 mmHg 43%
    01:00 +12°C° 0 mm 3 mps 759 mmHg 44%
    02:00 +12°C° 0 mm 3 mps 759 mmHg 44%
    03:00 +11°C° 0 mm 3 mps 758 mmHg 45%
    04:00 +11°C° 0 mm 3 mps 758 mmHg 45%
    05:00 +11°C° 0 mm 3 mps 758 mmHg 45%
    06:00 +12°C° 0 mm 3 mps 758 mmHg 45%
    07:00 +12°C° 0 mm 3 mps 758 mmHg 45%
    08:00 +13°C° 0 mm 4 mps 758 mmHg 44%
    09:00 +16°C° 0 mm 3 mps 758 mmHg 40%
    10:00 +18°C° 0 mm 3 mps 758 mmHg 35%
    11:00 +21°C° 0 mm 3 mps 757 mmHg 31%
    12:00 +21°C° 0 mm 3 mps 757 mmHg 31%
    13:00 +21°C° 0 mm 3 mps 756 mmHg 32%
    14:00 +22°C° 0 mm 4 mps 756 mmHg 32%
    15:00 +20°C° 0 mm 3 mps 756 mmHg 38%
    16:00 +18°C° 0 mm 3 mps 756 mmHg 45%
    17:00 +16°C° 0 mm 3 mps 756 mmHg 51%
    18:00 +14°C° 0 mm 4 mps 755 mmHg 52%
    19:00 +14°C° 0 mm 4 mps 755 mmHg 52%
    20:00 +13°C° 0 mm 4 mps 755 mmHg 53%
    21:00 +13°C° 0 mm 4 mps 755 mmHg 52%
    22:00 +13°C° 0 mm 5 mps 755 mmHg 51%
    23:00 +13°C° 0 mm 5 mps 754 mmHg 51%

    Tomorrow, 22 November, Wednesday

    Time Temperature Precipitation Wind Pressure Humidity
    00:00 +12°C° 0 mm 5 mps 754 mmHg 52%
    01:00 +11°C° 0 mm 6 mps 754 mmHg 53%
    02:00 +11°C° 0 mm 6 mps 753 mmHg 55%
    03:00 +11°C° 0 mm 6 mps 753 mmHg 55%
    04:00 +11°C° 0 mm 6 mps 752 mmHg 56%
    05:00 +11°C° 0 mm 7 mps 752 mmHg 57%
    06:00 +12°C° 0 mm 7 mps 751 mmHg 55%
    07:00 +14°C° 0 mm 7 mps 751 mmHg 54%
    08:00 +14°C° 0 mm 7 mps 751 mmHg 52%
    09:00 +16°C° 0.2 mm 8 mps 751 mmHg 49%
    10:00 +17°C° 0.2 mm 8 mps 751 mmHg 47%
    11:00 +20°C° 0.2 mm 8 mps 751 mmHg 44%
    12:00 +18°C° 0.6 mm 9 mps 750 mmHg 52%
    13:00 +18°C° 0.6 mm 9 mps 750 mmHg 60%
    14:00 +17°C° 0.6 mm 9 mps 750 mmHg 67%
    15:00 +16°C° 0.2 mm 9 mps 750 mmHg 71%
    16:00 +16°C° 0.2 mm 9 mps 750 mmHg 74%
    17:00 +16°C° 0.2 mm 8 mps 750 mmHg 77%
    18:00 +15°C° 0.2 mm 8 mps 750 mmHg 77%
    19:00 +15°C° 0.2 mm 7 mps 750 mmHg 77%
    20:00 +15°C° 0.2 mm 6 mps 750 mmHg 77%
    21:00 +15°C° 0.4 mm 6 mps 750 mmHg 79%
    22:00 +15°C° 0.4 mm 5 mps 751 mmHg 82%
    23:00 +15°C° 0.4 mm 5 mps 751 mmHg 84%

    Day after tomorrow, 23 November, Thursday

    Time Temperature Precipitation Wind Pressure Humidity
    00:00 +15°C° 0.2 mm 5 mps 751 mmHg 86%
    01:00 +15°C° 0.2 mm 5 mps 751 mmHg 88%
    02:00 +15°C° 0.2 mm 4 mps 751 mmHg 90%
    03:00 +15°C° 0.2 mm 4 mps 751 mmHg 91%
    04:00 +15°C° 0.2 mm 4 mps 751 mmHg 92%
    05:00 +14°C° 0.2 mm 4 mps 751 mmHg 93%
    06:00 +15°C° 0.1 mm 5 mps 752 mmHg 92%
    07:00 +15°C° 0.1 mm 5 mps 752 mmHg 91%
    08:00 +16°C° 0.1 mm 5 mps 752 mmHg 90%
    09:00 +17°C° 0.2 mm 6 mps 752 mmHg 83%
    10:00 +18°C° 0.2 mm 7 mps 753 mmHg 76%
    11:00 +20°C° 0.2 mm 8 mps 753 mmHg 69%
    12:00 +20°C° 0.4 mm 7 mps 752 mmHg 67%
    13:00 +19°C° 0.4 mm 6 mps 752 mmHg 64%
    14:00 +19°C° 0.4 mm 5 mps 752 mmHg 61%
    15:00 +19°C° 0.5 mm 5 mps 752 mmHg 60%
    16:00 +17°C° 0.5 mm 5 mps 752 mmHg 58%
    17:00 +17°C° 0.5 mm 5 mps 752 mmHg 57%
    18:00 +16°C° 0.5 mm 5 mps 752 mmHg 57%
    19:00 +16°C° 0.5 mm 5 mps 752 mmHg 57%
    20:00 +16°C° 0.5 mm 5 mps 752 mmHg 57%
    21:00 +16°C° 0.3 mm 6 mps 752 mmHg 59%
    22:00 +16°C° 0.3 mm 6 mps 751 mmHg 61%
    23:00 +16°C° 0.3 mm 6 mps 751 mmHg 63%

    24 November, Friday

    Time Temperature Precipitation Wind Pressure Humidity
    00:00 +16°C° 0.7 mm 7 mps 751 mmHg 63%
    01:00 +16°C° 0.7 mm 8 mps 750 mmHg 63%
    02:00 +16°C° 0.7 mm 8 mps 750 mmHg 63%
    03:00 +15°C° 0.9 mm 8 mps 750 mmHg 68%
    04:00 +15°C° 0.9 mm 7 mps 751 mmHg 73%
    05:00 +15°C° 0.9 mm 6 mps 751 mmHg 78%
    06:00 +15°C° 0.3 mm 6 mps 751 mmHg 79%
    07:00 +15°C° 0.3 mm 6 mps 751 mmHg 79%
    08:00 +15°C° 0.3 mm 6 mps 752 mmHg 80%
    09:00 +15°C° 0.4 mm 6 mps 752 mmHg 80%
    10:00 +15°C° 0.4 mm 7 mps 752 mmHg 81%
    11:00 +16°C° 0.4 mm 7 mps 752 mmHg 81%
    12:00 +15°C° 0.6 mm 7 mps 751 mmHg 83%
    13:00 +15°C° 0.6 mm 6 mps 751 mmHg 84%
    14:00 +15°C° 0.6 mm 6 mps 751 mmHg 86%
    15:00 +15°C° 1.4 mm 5 mps 751 mmHg 88%
    16:00 +15°C° 1.4 mm 4 mps 751 mmHg 89%
    17:00 +15°C° 1.4 mm 4 mps 751 mmHg 91%
    18:00 +16°C° 0.7 mm 3 mps 751 mmHg 92%
    19:00 +16°C° 0.7 mm 3 mps 752 mmHg 93%
    20:00 +16°C° 0.7 mm 2 mps 752 mmHg 94%
    21:00 +16°C° 0.8 mm 3 mps 753 mmHg 95%
    22:00 +16°C° 0.8 mm 3 mps 753 mmHg 95%
    23:00 +16°C° 0.8 mm 3 mps 753 mmHg 96%

    25 November, Saturday

    Time Temperature Precipitation Wind Pressure Humidity
    00:00 +15°C° 1.2 mm 4 mps 753 mmHg 94%
    01:00 +14°C° 1.2 mm 4 mps 754 mmHg 92%
    02:00 +14°C° 1.2 mm 5 mps 754 mmHg 91%
    03:00 +13°C° 0.2 mm 4 mps 755 mmHg 88%
    04:00 +13°C° 0.2 mm 4 mps 755 mmHg 86%
    05:00 +13°C° 0.2 mm 3 mps 755 mmHg 84%
    06:00 +13°C° 0 mm 4 mps 756 mmHg 83%
    07:00 +13°C° 0 mm 5 mps 757 mmHg 82%
    08:00 +13°C° 0 mm 5 mps 757 mmHg 82%
    09:00 +14°C° 0 mm 5 mps 757 mmHg 79%
    10:00 +14°C° 0 mm 5 mps 758 mmHg 76%
    11:00 +15°C° 0 mm 5 mps 758 mmHg 74%
    12:00 +15°C° 0.1 mm 5 mps 758 mmHg 73%
    13:00 +15°C° 0 mm 5 mps 757 mmHg 72%
    14:00 +15°C° 0.1 mm 5 mps 757 mmHg 71%
    15:00 +15°C° 0.1 mm 5 mps 757 mmHg 72%
    16:00 +14°C° 0.1 mm 4 mps 758 mmHg 74%
    17:00 +14°C° 0.1 mm 4 mps 758 mmHg 75%
    18:00 +14°C° 0.5 mm 4 mps 758 mmHg 77%
    19:00 +14°C° 0.5 mm 4 mps 759 mmHg 79%
    20:00 +14°C° 0.5 mm 3 mps 759 mmHg 81%
    21:00 +14°C° 0.6 mm 3 mps 759 mmHg 83%
    22:00 +14°C° 0.6 mm 3 mps 759 mmHg 84%
    23:00 +14°C° 0.6 mm 3 mps 759 mmHg 85%

    26 November, Sunday

    Time Temperature Precipitation Wind Pressure Humidity
    00:00 +13°C° 0.7 mm 3 mps 759 mmHg 86%
    01:00 +13°C° 0.7 mm 3 mps 759 mmHg 87%
    02:00 +13°C° 0.7 mm 4 mps 759 mmHg 88%
    03:00 +13°C° 0.5 mm 4 mps 759 mmHg 88%
    04:00 +13°C° 0.5 mm 4 mps 759 mmHg 88%
    05:00 +13°C° 0.5 mm 4 mps 759 mmHg 88%
    06:00 +13°C° 0.7 mm 4 mps 760 mmHg 88%
    07:00 +13°C° 0.7 mm 4 mps 760 mmHg 88%
    08:00 +13°C° 0.7 mm 3 mps 760 mmHg 88%
    09:00 +13°C° 0.5 mm 3 mps 760 mmHg 87%
    10:00 +14°C° 0.5 mm 3 mps 760 mmHg 86%
    11:00 +14°C° 0.5 mm 3 mps 760 mmHg 85%
    12:00 +14°C° 0.3 mm 3 mps 760 mmHg 85%
    13:00 +14°C° 0.3 mm 3 mps 760 mmHg 84%
    14:00 +16°C° 0.3 mm 3 mps 759 mmHg 83%
    15:00 +14°C° 0.1 mm 3 mps 759 mmHg 84%
    16:00 +14°C° 0.1 mm 3 mps 759 mmHg 85%
    17:00 +14°C° 0.1 mm 3 mps 759 mmHg 86%
    18:00 +13°C° 0 mm 3 mps 759 mmHg 86%
    19:00 +13°C° 0 mm 3 mps 759 mmHg 86%
    20:00 +13°C° 0 mm 3 mps 759 mmHg 86%
    21:00 +13°C° 0 mm 3 mps 759 mmHg 86%
    22:00 +13°C° 0 mm 4 mps 758 mmHg 86%
    23:00 +12°C° 0 mm 4 mps 758 mmHg 86%
    Show more